FW0385 Weather Reports


time (UTC)temp
C
wind
direction
speed
KPH
gust
KPH
rain 1hr
cm
rain 24hr
cm
rain mn
cm
humidity
%
barometer
mb
20260508053039 7 232 3.2 6.4 0.00 0.00 0.00 61 1013.3
20260508051524 7 232 3.2 6.4 0.00 0.00 0.00 61 1013.3
20260508050022 7 223 3.2 6.4 0.00 0.00 0.00 61 1013.3
20260508044520 8 211 4.8 8.0 0.00 0.00 0.00 61 1013.3
20260508043018 8 266 3.2 6.4 0.00 0.00 0.00 59 1013.2
20260508041519 8 290 3.2 8.0 0.00 0.00 0.00 58 1013.0
20260508040013 8 298 1.6 6.4 0.00 0.00 0.00 59 1012.9
20260508034522 8 322 3.2 6.4 0.00 0.00 0.00 58 1012.9
20260508033022 8 360 1.6 4.8 0.00 0.00 0.00 58 1012.8
20260508031510 8 360 1.6 4.8 0.00 0.00 0.00 59 1012.8
20260508030015 8 297 1.6 8.0 0.00 0.00 0.00 61 1012.7
20260508024519 8 323 3.2 8.0 0.00 0.00 0.00 61 1012.7
20260508023011 8 314 1.6 9.7 0.00 0.00 0.00 61 1012.7
20260508021508 8 302 3.2 8.0 0.00 0.00 0.00 59 1012.5
20260508020008 9 304 1.6 11.3 0.00 0.00 0.00 58 1012.4
20260508014512 9 317 3.2 14.5 0.00 0.00 0.00 56 1012.2
20260508013007 10 309 4.8 9.7 0.00 0.00 0.00 56 1012.0
20260508011506 10 301 8.0 17.7 0.00 0.00 0.00 55 1011.9
20260508010013 10 325 8.0 17.7 0.00 0.00 0.00 54 1011.7
20260508004506 10 300 4.8 22.5 0.00 0.00 0.00 56 1011.5
20260508003005 11 304 4.8 17.7 0.00 0.00 0.00 53 1011.4
20260508001603 11 355 8.0 22.5 0.00 0.00 0.00 51 1011.2
20260508000059 12 304 4.8 22.5 0.00 0.00 0.00 50 1011.0
20260507234559 12 292 14.5 22.5 0.00 0.00 0.00 47 1010.7
20260507233058 13 309 4.8 16.1 0.00 0.00 0.00 48 1010.7
20260507231558 13 324 11.3 29.0 0.00 0.00 0.00 43 1010.4
20260507230111 13 302 9.7 29.0 0.00 0.00 0.00 44 1010.3
20260507224556 13 304 11.3 32.2 0.00 0.00 0.00 44 1010.2
20260507223202 14 296 17.7 27.4 0.00 0.00 0.00 43 1010.1
20260507221554 14 277 14.5 25.7 0.00 0.00 0.00 42 1010.0
20260507220054 14 319 16.1 30.6 0.00 0.00 0.00 44 1009.7
20260507214558 14 273 8.0 20.9 0.00 0.00 0.00 46 1009.4
20260507213121 13 311 14.5 30.6 0.00 0.00 0.00 45 1009.4
20260507211553 14 295 11.3 24.1 0.00 0.00 0.00 45 1009.3
20260507210057 14 312 16.1 25.7 0.00 0.00 0.00 43 1009.2
20260507204551 15 284 12.9 27.4 0.00 0.00 0.00 43 1009.1
20260507203051 14 293 8.0 25.7 0.00 0.00 0.00 50 1009.2
20260507201603 15 304 17.7 29.0 0.00 0.00 0.00 43 1009.1
20260507194547 14 311 8.0 20.9 0.00 0.00 0.00 46 1009.6
20260507193048 15 284 14.5 29.0 0.00 0.00 0.00 51 1009.8
20260507191542 13 294 8.0 24.1 0.00 0.00 0.00 50 1010.1
20260507190044 14 340 11.3 19.3 0.00 0.00 0.00 51 1010.0
20260507184543 14 258 4.8 24.1 0.00 0.00 0.00 50 1010.1
20260507183041 15 272 14.5 29.0 0.00 0.00 0.00 51 1010.1
20260507181539 15 211 8.0 24.1 0.00 0.00 0.00 52 1010.1
20260507180038 15 294 17.7 30.6 0.00 0.00 0.00 53 1010.3
20260507174547 14 269 17.7 27.4 0.00 0.00 0.00 55 1010.3
20260507173035 13 300 16.1 32.2 0.00 0.00 0.00 56 1010.5
20260507171527 12 275 12.9 25.7 0.00 0.00 0.00 56 1010.7
20260507170027 13 281 11.3 20.9 0.00 0.00 0.00 59 1011.0
20260507164522 13 257 6.4 20.9 0.00 0.00 0.00 61 1011.1
20260507163024 12 267 17.7 25.7 0.00 0.00 0.00 58 1011.0
20260507161524 12 303 12.9 27.4 0.00 0.00 0.00 62 1011.2
20260507160019 12 264 8.0 16.1 0.00 0.00 0.00 60 1011.3
20260507154517 12 275 6.4 20.9 0.00 0.00 0.00 65 1011.5
20260507153014 12 304 3.2 11.3 0.00 0.00 0.00 66 1011.5
20260507151512 12 309 4.8 14.5 0.00 0.00 0.00 65 1011.5
20260507150012 12 285 6.4 19.3 0.00 0.00 0.00 60 1011.6
20260507144509 12 331 4.8 11.3 0.00 0.05 0.00 63 1011.9
20260507143005 11 271 8.0 16.1 0.00 0.05 0.00 66 1012.1
20260507141501 12 323 3.2 17.7 0.00 0.05 0.00 62 1012.1
20260507140057 12 205 3.2 8.0 0.00 0.05 0.00 68 1012.5
20260507134530 11 335 3.2 8.0 0.00 0.10 0.00 65 1012.7
20260507133024 11 227 1.6 11.3 0.00 0.10 0.00 75 1012.7
20260507131526 10 215 6.4 11.3 0.00 0.10 0.00 76 1012.9
20260507130019 10 184 8.0 12.9 0.00 0.10 0.00 77 1012.8
20260507124516 10 184 3.2 8.0 0.00 0.15 0.00 79 1012.7
20260507123012 9 190 3.2 6.4 0.00 0.15 0.00 80 1012.6
20260507121508 8 146 3.2 4.8 0.00 0.15 0.00 83 1012.5
20260507120006 7 117 3.2 4.8 0.00 0.15 0.00 85 1012.5
20260507114503 8 38 0.0 0.0 0.00 0.25 0.00 86 1012.5
20260507113058 7 36 0.0 0.0 0.00 0.25 0.00 86 1012.4
20260507111554 7 36 0.0 0.0 0.00 0.25 0.00 85 1012.1
20260507110050 6 36 0.0 0.0 0.00 0.25 0.00 87 1012.1
20260507104545 6 36 0.0 0.0 0.00 0.46 0.00 88 1011.9
20260507103042 6 36 0.0 3.2 0.00 0.46 0.00 88 1012.0
20260507101545 6 36 1.6 3.2 0.00 0.46 0.00 87 1011.9
20260507100050 6 36 0.0 3.2 0.00 0.46 0.00 83 1011.9
20260507094539 6 36 0.0 0.0 0.00 0.94 0.00 81 1011.8
20260507093037 6 36 0.0 4.8 0.00 0.94 0.00 81 1011.8
20260507091535 7 36 3.2 6.4 0.00 0.94 0.00 80 1011.6
20260507090034 7 40 3.2 8.0 0.00 0.94 0.00 78 1011.6
20260507084537 7 36 4.8 9.7 0.00 1.45 0.00 81 1011.7
20260507083040 7 34 6.4 12.9 0.00 1.45 0.00 82 1011.8
20260507081528 7 19 4.8 8.0 0.00 1.45 0.00 84 1011.9
20260507080027 7 350 4.8 9.7 0.00 1.45 0.00 83 1011.8
20260507074526 7 28 3.2 8.0 0.00 1.57 0.00 83 1011.7
20260507073023 7 34 4.8 9.7 0.00 1.57 0.00 82 1011.5
20260507071520 7 10 4.8 11.3 0.00 1.57 0.00 82 1011.5
20260507070022 8 344 1.6 9.7 0.00 1.57 0.00 82 1011.5
20260507064527 8 339 3.2 6.4 0.00 1.73 0.00 83 1011.6
20260507063022 8 302 3.2 12.9 0.00 1.73 0.00 83 1011.5
20260507061514 8 331 3.2 9.7 0.00 1.73 0.00 85 1011.6
20260507060018 8 325 3.2 12.9 0.00 1.73 0.00 87 1011.6
20260507054510 8 324 0.0 0.0 0.00 1.73 0.00 87 1011.8